DECAYED

STARLINK-2089, 47372 (Decayed)

Orbit data source: Space-Track

STARLINK-2089, 47372 was a payload satellite owned by SpaceX/Seattle (US) in LEO that was launched on Wed, 20 Jan 2021 UTC via an FALCON 9 launch vehicle from the Air Force Eastern Test Range (AFETR). Payload-class satellites include a variety of spacecraft equipped with specific instruments for various scientific and technological missions. These include communications satellites like Starlink; space stations such as the ISS; scientific satellites like the Hubble; Earth observation satellites from companies like Planet Labs, Umbra, and HawkEye 360; GPS; miniature CubeSats for education and research; and military/defense satellites.

Not visible in the next 10 days
Identifier
47372, 2021-005Z
Orbit
Decayed
Country
Flag of USUS
Related business
Manufacturer
SpaceX/Seattle
Mission
Decayed Commercial Communications
Bus & Motor
STARLINK, Unknown motor
Mass
260 kg wet, ~248 kg dry
Launch date (UTC)
2021-01-20 (5 years ago)
Launch vehicle
FALCON 9
Launch site
Air Force Eastern Test Range (AFETR)
Object type
Payload
Rocket body
Debris
Shape & HBR
Box + 1 Pan, 10.1 m
Radar Cross Section
13.562 m², Large (>1 m²)

Expand to show TLE details & history
Last TLE update: 1 year ago

TLE from 1 year ago
0 STARLINK-2089
1 47372U 21005Z   25001.96082999  .09045951  11890-4  40939-2 0  9994
2 47372  53.0526 170.2119 0004644  54.5731  78.6275 16.21330846218370
Epoch: 2025-01-01T23:03Z
TLE epoch observation values (Epoch: 2025-01-01T23:03:35.711Z)
Latitude
35.71695°
Longitude
-130.06036°
Altitude
218.036 km
Speed
7.781 km/s
True Right ascension
21h 10m 44s
True Declination
35° 32' 27"
Sunlit
Object was in daylight at epoch
Visualization orbit readout
Latitude
Unknown
Longitude
Unknown
Altitude
Unknown
Speed
Unknown
Apparent Right ascension
Unknown
Apparent Declination
Unknown
Sunlit
N/A
Visualization observer readout
Local Sidereal Time
21:25:50
Azimuth
Unknown
Elevation
Unknown
Doppler factor
Unknown
Orbital elements
Apogee altitude
219.288 km
Perigee altitude
213.163 km
Semi-major axis
6,594.362 km
Eccentricity
0.00046
Inclination
53.0526°
RAAN
170.2119°
Arg. of periapsis
54.5731°
True anomaly
78.67968°
Mean anomaly
78.6275°
Eccentric anomaly
78.65359°
Mean motion
4.05307 °/min
Orbital period
88.82 mins
BSTAR
0.0040939
Loading maneuver chart data...
Computing Atmospheric mass density...
Loading historical data...
Loading historical data...
Loading historical data...
Loading historical data...
Loading historical data...
Loading historical data...
Loading historical data...

Documentation

Showing up to 5 results
|